sat.trackr.live / text

‹ back to catalog

PUNCH-WFI 3 (SMEX 15D)

NORAD 63180 · 2025-047C

PAYLOAD ACTIVE UNKNOWN

§ Identity

Operator
Country
US
Launch date
2025-03-12
Launch site
AFWTR
Launch vehicle
Mass (kg)
RCS (m²)

External: N2YO · Heavens-Above · Gunter

§ Orbital elements

Epoch: 2026-05-25T01:42:07.231392Z

Period
97.67 min
Inclination
97.9546°
Eccentricity
0.0008813
Mean motion
14.74320235 rev/d
Perigee alt
641.1 km
Apogee alt
653.5 km
Semi-major
7,025.4 km
B*
7.0469e-5
RAAN
330.5388°
Arg perigee
238.8553°
Mean anomaly
121.1791°
Rev number
6,465

§ Raw data

PUNCH-WFI 3 (SMEX 15D)1 63180U 25047C   26145.07091703  .00000417  00000+0  70469-4 0  99922 63180  97.9546 330.5388 0008813 238.8553 121.1791 14.74320235 64658

JSON: /api/v1/satellites/63180 · /tle

For live sub-satellite position, see the globe view (requires WebGL).

§ Visibility from observer

Set your observer location to see the next 7 days of passes ≥ 10°. The values pass through the URL so the page stays shareable.

No JS? Fill the form by hand. The geolocation button needs JavaScript.